| time (UTC) | temp F | wind direction | speed knots | gust knots | rain 1hr in | rain 24hr in | rain mn in | humidity % | barometer mb |
| 20260504185518 | 72 | 203 | 6.1 | 13.0 | 0.00 | 0.00 | 0.00 | 39 | 1007.9 |
| 20260504184521 | 72 | 225 | 5.2 | 10.4 | 0.00 | 0.00 | 0.00 | 40 | 1008.2 |
| 20260504183945 | 72 | 225 | 6.1 | 11.3 | 0.00 | 0.00 | 0.00 | 41 | 1008.4 |
| 20260504182519 | 71 | 225 | 5.2 | 12.2 | 0.00 | 0.01 | 0.00 | 42 | 1008.5 |
| 20260504181521 | 71 | 203 | 5.2 | 11.3 | 0.00 | 0.01 | 0.00 | 43 | 1008.7 |
| 20260504180729 | 70 | 203 | 7.8 | 16.5 | 0.00 | 0.01 | 0.00 | 42 | 1008.7 |
| 20260504175519 | 70 | 203 | 6.1 | 11.3 | 0.00 | 0.01 | 0.00 | 43 | 1008.9 |
| 20260504174731 | 70 | 203 | 5.2 | 8.7 | 0.00 | 0.01 | 0.00 | 42 | 1009.0 |
| 20260504173519 | 69 | 180 | 6.1 | 13.9 | 0.00 | 0.01 | 0.00 | 43 | 1009.1 |
| 20260504172519 | 69 | 248 | 6.1 | 13.9 | 0.00 | 0.01 | 0.00 | 44 | 1009.3 |
| 20260504171729 | 69 | 203 | 5.2 | 12.2 | 0.00 | 0.01 | 0.00 | 44 | 1009.3 |
| 20260504170519 | 69 | 225 | 5.2 | 11.3 | 0.00 | 0.01 | 0.00 | 45 | 1009.4 |
| 20260504150519 | 63 | 203 | 4.3 | 9.6 | 0.00 | 0.01 | 0.00 | 46 | 1011.0 |
| 20260504140519 | 60 | 203 | 2.6 | 7.0 | 0.00 | 0.01 | 0.00 | 50 | 1011.4 |
| 20260504110519 | 44 | 293 | 0.9 | 2.6 | 0.00 | 0.01 | 0.00 | 61 | 1011.7 |
| 20260504100519 | 43 | 0.0 | 2.6 | 0.00 | 0.01 | 0.00 | 64 | 1012.0 | |
| 20260504081520 | 48 | 0.0 | 0.9 | 0.00 | 0.01 | 0.00 | 58 | 1012.2 | |
| 20260504080707 | 48 | 0.0 | 2.6 | 0.00 | 0.01 | 0.00 | 57 | 1012.2 | |
| 20260504050519 | 47 | 0.0 | 0.0 | 0.00 | 0.01 | 0.00 | 59 | 1012.5 | |
| 20260504045520 | 47 | 0.0 | 0.0 | 0.00 | 0.01 | 0.00 | 60 | 1012.5 | |
| 20260504044519 | 47 | 0.0 | 0.0 | 0.00 | 0.01 | 0.00 | 58 | 1012.5 | |
| 20260504043519 | 47 | 0.0 | 0.0 | 0.00 | 0.01 | 0.00 | 58 | 1012.5 | |
| 20260504042519 | 47 | 0.0 | 0.0 | 0.00 | 0.01 | 0.00 | 60 | 1012.5 | |
| 20260504041519 | 47 | 0.0 | 0.0 | 0.00 | 0.01 | 0.00 | 60 | 1012.5 | |
| 20260504040519 | 46 | 0.0 | 0.0 | 0.00 | 0.01 | 0.00 | 62 | 1012.6 | |
| 20260504035518 | 45 | 0.0 | 1.7 | 0.00 | 0.01 | 0.01 | 64 | 1012.6 | |
| 20260504034521 | 44 | 293 | 0.9 | 2.6 | 0.00 | 0.01 | 0.01 | 65 | 1012.4 |
| 20260504033519 | 44 | 0.0 | 0.0 | 0.00 | 0.01 | 0.01 | 64 | 1012.3 | |
| 20260504032519 | 44 | 0.0 | 0.0 | 0.00 | 0.01 | 0.01 | 65 | 1012.3 | |
| 20260504031519 | 45 | 0.0 | 0.0 | 0.00 | 0.01 | 0.01 | 64 | 1012.3 | |
| 20260504030519 | 45 | 0.0 | 0.0 | 0.00 | 0.01 | 0.01 | 64 | 1012.2 | |
| 20260504025730 | 45 | 0.0 | 0.0 | 0.00 | 0.01 | 0.01 | 64 | 1012.2 | |
| 20260504024518 | 46 | 0.0 | 0.0 | 0.00 | 0.01 | 0.01 | 64 | 1012.2 | |
| 20260504023519 | 46 | 0.0 | 0.0 | 0.00 | 0.01 | 0.01 | 63 | 1012.2 | |
| 20260504022519 | 47 | 0.0 | 0.0 | 0.00 | 0.01 | 0.01 | 62 | 1012.2 | |
| 20260504021519 | 47 | 0.0 | 0.0 | 0.00 | 0.01 | 0.01 | 61 | 1012.1 | |
| 20260504020519 | 48 | 0.0 | 0.0 | 0.00 | 0.01 | 0.01 | 59 | 1012.2 | |
| 20260504015943 | 48 | 0.0 | 0.0 | 0.00 | 0.01 | 0.01 | 56 | 1012.2 | |
| 20260504014519 | 49 | 0.0 | 0.0 | 0.00 | 0.01 | 0.01 | 55 | 1012.2 | |
| 20260504013945 | 50 | 0.0 | 0.0 | 0.00 | 0.01 | 0.01 | 53 | 1012.2 | |
| 20260504012519 | 50 | 0.0 | 0.0 | 0.00 | 0.01 | 0.01 | 53 | 1012.1 | |
| 20260504011519 | 51 | 0.0 | 0.0 | 0.00 | 0.01 | 0.01 | 51 | 1012.0 | |
| 20260504010519 | 51 | 0.0 | 0.0 | 0.00 | 0.01 | 0.01 | 52 | 1011.9 | |
| 20260504005519 | 52 | 0.0 | 0.0 | 0.00 | 0.01 | 0.01 | 47 | 1011.8 | |
| 20260504004519 | 52 | 0.0 | 0.0 | 0.00 | 0.01 | 0.01 | 47 | 1011.8 | |
| 20260504003519 | 53 | 0.0 | 0.0 | 0.00 | 0.01 | 0.01 | 46 | 1011.8 | |
| 20260504002519 | 54 | 0.0 | 0.0 | 0.00 | 0.01 | 0.01 | 45 | 1011.6 | |
| 20260504001730 | 55 | 0.0 | 0.0 | 0.00 | 0.01 | 0.01 | 44 | 1011.6 | |
| 20260504000518 | 56 | 0.0 | 0.9 | 0.00 | 0.01 | 0.01 | 42 | 1011.5 | |
| 20260503235519 | 57 | 0.0 | 1.7 | 0.00 | 0.01 | 0.01 | 40 | 1011.5 | |
| 20260503234519 | 58 | 293 | 2.6 | 5.2 | 0.00 | 0.01 | 0.01 | 38 | 1011.3 |
| 20260503233728 | 59 | 293 | 3.5 | 7.8 | 0.00 | 0.01 | 0.01 | 38 | 1011.2 |
| 20260503232519 | 59 | 293 | 1.7 | 4.3 | 0.00 | 0.01 | 0.01 | 37 | 1011.2 |
| 20260503231519 | 59 | 248 | 2.6 | 7.0 | 0.00 | 0.01 | 0.01 | 36 | 1011.1 |
| 20260503230519 | 60 | 270 | 4.3 | 10.4 | 0.00 | 0.01 | 0.01 | 35 | 1011.1 |
| 20260503225519 | 60 | 338 | 2.6 | 7.0 | 0.00 | 0.01 | 0.01 | 36 | 1011.1 |
| 20260503224733 | 60 | 315 | 4.3 | 7.8 | 0.00 | 0.01 | 0.01 | 35 | 1011.0 |
| 20260503223519 | 60 | 270 | 4.3 | 9.6 | 0.00 | 0.01 | 0.01 | 35 | 1011.1 |
| 20260503222730 | 60 | 293 | 4.3 | 9.6 | 0.00 | 0.01 | 0.01 | 34 | 1011.1 |
| 20260503221519 | 59 | 270 | 5.2 | 12.2 | 0.00 | 0.01 | 0.01 | 34 | 1011.1 |
| 20260503220519 | 60 | 293 | 6.1 | 13.0 | 0.00 | 0.01 | 0.01 | 34 | 1011.2 |
| 20260503215519 | 60 | 270 | 2.6 | 6.1 | 0.00 | 0.01 | 0.01 | 35 | 1011.2 |
| 20260503214519 | 60 | 270 | 4.3 | 9.6 | 0.00 | 0.01 | 0.01 | 35 | 1011.1 |
| 20260503213519 | 61 | 270 | 6.1 | 11.3 | 0.00 | 0.01 | 0.01 | 34 | 1011.0 |
| 20260503212519 | 60 | 315 | 5.2 | 10.4 | 0.00 | 0.01 | 0.01 | 35 | 1011.0 |
| 20260503211519 | 61 | 293 | 5.2 | 11.3 | 0.00 | 0.01 | 0.01 | 35 | 1011.0 |
| 20260503210519 | 60 | 315 | 4.3 | 11.3 | 0.00 | 0.01 | 0.01 | 34 | 1011.1 |
| 20260503205519 | 60 | 293 | 7.0 | 19.1 | 0.00 | 0.01 | 0.01 | 36 | 1011.2 |
| 20260503204519 | 60 | 315 | 5.2 | 16.5 | 0.00 | 0.01 | 0.01 | 37 | 1011.1 |
| 20260503203519 | 60 | 270 | 3.5 | 10.4 | 0.00 | 0.01 | 0.01 | 36 | 1011.1 |
| 20260503202519 | 59 | 293 | 3.5 | 8.7 | 0.00 | 0.01 | 0.01 | 38 | 1011.2 |
| 20260503201732 | 60 | 315 | 5.2 | 11.3 | 0.00 | 0.01 | 0.01 | 37 | 1011.3 |
| 20260503200520 | 60 | 315 | 7.8 | 17.4 | 0.00 | 0.01 | 0.01 | 36 | 1011.5 |
| 20260503195519 | 59 | 293 | 7.0 | 17.4 | 0.00 | 0.01 | 0.01 | 38 | 1011.5 |
| 20260503194519 | 59 | 293 | 6.1 | 13.0 | 0.00 | 0.01 | 0.01 | 36 | 1011.4 |
| 20260503193519 | 59 | 315 | 6.1 | 18.2 | 0.00 | 0.01 | 0.01 | 36 | 1011.7 |
| 20260503192520 | 59 | 270 | 4.3 | 13.9 | 0.01 | 0.01 | 0.01 | 35 | 1011.9 |
| 20260503191519 | 58 | 293 | 7.0 | 17.4 | 0.01 | 0.01 | 0.01 | 37 | 1011.9 |
| 20260503190519 | 58 | 270 | 7.0 | 11.3 | 0.01 | 0.01 | 0.01 | 36 | 1012.1 |